Zurück zum Katalog

DELTA 1 DEB

AktivPO
NORAD 21501·DEBRIS·🇺🇸 United States

Gestartet Jun 12, 1975 von Vandenberg Space Force Base

Loading…

Nächste Überflüge (nächste 24 Stunden)

TLE

AktuellSource: Space-Track

Epoche: Sep 14, 2026, 14:47 UTC

1 21501U 75052FW  26257.61638515  .00000130  00000-0  63960-3 0  9996
2 21501  99.7893 137.3818 0551016   9.4040  18.0756 12.47855365608515

Verfolge DELTA 1 DEB in Echtzeit mit AllMySat

Download on the App Store